DW8587 Weather Reports


time (UTC)temp
C
wind
direction
speed
KPH
gust
KPH
rain 1hr
cm
rain 24hr
cm
rain mn
cm
humidity
%
barometer
mb
20260507120052 18 219 3.2 14.5 0.00 1.70 0.05 59 1012.3
20260507114604 18 159 8.0 14.5 0.00 1.70 0.05 59 1012.4
20260507113050 18 212 6.4 17.7 0.00 1.70 0.05 59 1012.5
20260507111546 18 121 3.2 14.5 0.00 1.70 0.05 61 1012.6
20260507110046 18 239 4.8 12.9 0.00 1.70 0.05 65 1012.7
20260507104544 18 127 6.4 12.9 0.00 1.70 0.05 63 1012.9
20260507103044 17 161 6.4 12.9 0.00 1.70 0.05 64 1013.0
20260507101540 17 249 4.8 11.3 0.00 1.70 0.05 65 1013.2
20260507100041 17 207 4.8 11.3 0.00 1.70 0.05 66 1013.2
20260507094539 17 211 4.8 9.7 0.00 1.73 0.05 66 1013.2
20260507093033 16 323 3.2 11.3 0.00 1.73 0.05 66 1013.2
20260507091531 16 144 3.2 9.7 0.00 1.73 0.05 66 1013.2
20260507090030 15 165 3.2 14.5 0.00 1.73 0.05 71 1013.1
20260507084526 15 161 1.6 9.7 0.00 1.73 0.05 73 1013.2
20260507083023 15 84 4.8 14.5 0.00 1.73 0.05 74 1013.0
20260507081535 15 159 4.8 11.3 0.00 1.73 0.05 77 1013.0
20260507080018 15 185 1.6 4.8 0.00 1.73 0.05 79 1012.9
20260507074524 13 40 3.2 6.4 0.00 1.73 0.05 81 1012.8
20260507073012 13 342 3.2 14.5 0.00 1.73 0.05 81 1012.8
20260507071508 12 5 6.4 14.5 0.00 1.73 0.05 83 1012.8
20260507070010 12 11 3.2 9.7 0.00 1.73 0.05 84 1012.8
20260507064507 12 339 6.4 14.5 0.00 1.75 0.05 84 1012.6
20260507063101 12 340 6.4 17.7 0.00 1.75 0.05 85 1012.5
20260507061607 12 13 4.8 9.7 0.00 1.75 0.05 87 1012.4
20260507060055 11 5 3.2 8.0 0.00 1.75 0.05 88 1012.3
20260507054633 11 336 4.8 12.9 0.00 1.75 0.05 89 1012.3
20260507053052 11 338 3.2 6.4 0.00 1.75 0.05 90 1012.1
20260507051546 10 33 3.2 6.4 0.00 1.75 0.05 90 1011.9
20260507050046 10 47 3.2 6.4 0.00 1.75 0.05 90 1011.7
20260507044549 10 350 1.6 8.0 0.00 1.75 0.05 90 1011.6
20260507043042 10 46 3.2 8.0 0.00 1.75 0.05 90 1011.3
20260507041541 10 13 1.6 9.7 0.00 1.75 0.05 90 1011.2
20260507040038 10 32 1.6 6.4 0.03 1.75 0.05 90 1011.2
20260507034535 10 26 4.8 8.0 0.03 1.80 0.05 90 1011.2
20260507033034 10 42 6.4 11.3 0.03 1.80 0.05 90 1011.1
20260507031533 10 31 1.6 9.7 0.03 1.80 0.05 90 1011.1
20260507030041 10 38 4.8 11.3 0.00 1.78 0.03 90 1011.1
20260507024536 11 35 1.6 9.7 0.00 1.93 0.03 90 1011.0
20260507023030 11 9 6.4 12.9 0.00 1.93 0.03 90 1011.0
20260507021529 11 41 6.4 16.1 0.00 1.93 0.03 90 1011.2
20260507020028 11 29 1.6 8.0 0.00 1.93 0.03 91 1011.2
20260507014538 11 42 4.8 12.9 0.00 1.93 0.03 91 1011.0
20260507013025 11 22 1.6 4.8 0.00 1.93 0.03 91 1011.0
20260507011528 11 54 6.4 14.5 0.00 1.93 0.03 90 1010.8
20260507010023 11 32 0.0 4.8 0.03 1.93 0.03 90 1010.9
20260507004524 11 327 3.2 4.8 0.03 1.93 0.03 90 1010.9
20260507003021 11 355 3.2 12.9 0.03 1.93 0.03 90 1010.7
20260507001525 11 19 11.3 19.3 0.03 1.93 0.03 90 1010.7
20260507000026 11 35 8.0 16.1 0.00 1.93 0.00 90 1010.7
20260506234516 11 331 6.4 16.1 0.00 1.93 0.00 89 1010.7
20260506233015 11 30 3.2 9.7 0.00 1.93 0.00 88 1010.7
20260506231514 11 355 4.8 9.7 0.00 1.93 0.00 88 1010.7
20260506230012 11 57 4.8 17.7 0.00 1.93 0.00 88 1010.5
20260506224512 11 29 9.7 22.5 0.00 1.93 0.00 88 1010.5
20260506223009 11 42 14.5 22.5 0.00 1.93 0.00 89 1010.4
20260506221506 11 346 6.4 9.7 0.00 1.93 0.00 90 1010.4
20260506220014 11 348 6.4 14.5 0.00 1.93 0.00 90 1010.4
20260506214503 11 20 4.8 11.3 0.00 2.03 1.93 90 1010.3
20260506213002 11 25 6.4 19.3 0.00 2.03 1.93 91 1010.2
20260506211507 11 37 6.4 9.7 0.00 2.03 1.93 91 1010.3
20260506210005 11 346 6.4 12.9 0.00 2.03 1.93 92 1010.4
20260506204501 11 342 1.6 6.4 0.00 2.13 1.93 91 1010.2
20260506203100 11 42 3.2 8.0 0.00 2.13 1.93 91 1010.0
20260506201559 11 36 4.8 12.9 0.00 2.13 1.93 91 1010.0
20260506200059 11 35 3.2 8.0 0.00 2.13 1.93 92 1009.8
20260506194633 11 24 1.6 6.4 0.00 2.16 1.93 92 1009.6
20260506193105 11 38 3.2 6.4 0.00 2.16 1.93 91 1009.4
20260506191555 11 228 1.6 3.2 0.00 2.16 1.93 91 1009.4
20260506190101 11 15 1.6 8.0 0.10 2.16 1.93 90 1008.9
20260506184555 11 360 6.4 11.3 0.28 2.31 1.93 89 1008.4
20260506183053 12 125 8.0 19.3 0.38 2.31 1.93 89 1007.8
20260506181553 12 115 1.6 24.1 0.51 2.31 1.93 89 1007.5
20260506174553 12 202 6.4 9.7 0.23 2.13 1.63 87 1008.5
20260506173056 13 5 1.6 8.0 0.15 2.06 1.55 85 1007.9
20260506171556 13 38 12.9 25.7 0.05 1.93 1.42 82 1007.7
20260506164548 13 34 6.4 17.7 0.00 2.16 1.37 83 1007.2
20260506163107 14 360 1.6 3.2 0.00 2.16 1.37 84 1006.9
20260506161547 13 350 6.4 20.9 0.00 2.16 1.37 82 1006.7
20260506160047 13 36 11.3 22.5 0.00 2.16 1.37 82 1006.2
20260506154606 13 26 12.9 24.1 0.00 2.18 1.37 83 1006.2
20260506153050 13 33 16.1 24.1 0.00 2.18 1.37 83 1006.5
20260506151543 14 39 14.5 22.5 0.13 2.18 1.37 84 1006.7
20260506150042 13 42 14.5 22.5 0.13 2.18 1.37 86 1006.7
20260506144542 13 25 12.9 25.7 0.13 2.21 1.37 89 1006.8
20260506143048 13 11 3.2 11.3 0.15 2.21 1.37 91 1007.3
20260506141542 13 22 14.5 19.3 0.05 2.08 1.27 90 1007.2
20260506140040 13 33 6.4 22.5 0.48 2.08 1.27 91 1007.0
20260506134539 12 346 6.4 16.1 0.94 2.08 1.27 93 1006.9
20260506133040 12 28 6.4 14.5 0.99 2.06 1.24 93 1007.2
20260506131537 12 349 11.3 19.3 0.97 2.03 1.22 92 1007.3
20260506130035 12 328 9.7 30.6 0.51 1.57 0.76 88 1007.3
20260506124533 15 34 1.6 9.7 0.05 1.17 0.33 87 1007.0
20260506123034 16 138 9.7 17.7 0.00 1.09 0.25 85 1007.0
20260506121538 16 115 9.7 22.5 0.00 1.09 0.25 85 1006.8